This demonstration page uses our WeatherBlox Daily Observations layout. Learn more.

Left ArrowRight Arrow

39.29038, -76.61219

Hourly Observations for September 11, 2020

Temp ( °F °C ) Dew Point ( °F °C ) Humidity (%) Winds ( mph kmh ) Pressure ( in mb ) Visibility ( mi km ) Precip ( " mm )
12:54 am 00:54 Cloudy 77 25 74 23.3 90 90 Calm 30.09 1019 10 16 0.00 0.00
1:54 am 01:54 Cloudy 76 24.4 74 23.3 94 94 NNW 3 6 30.08 1019 10 16 0.00 0.00
2:54 am 02:54 Cloudy 76 24.4 74 23.3 94 94 NNW 3 6 30.07 1018 8 13 0.00 0.00
3:22 am 03:22 Cloudy with Mist and Fog 75 23.9 73 22.8 94 94 NW 6 9 30.07 1018 4 6 0.00 0.00
3:54 am 03:54 Cloudy with Mist and Fog 75 23.9 73 22.8 94 94 NW 6 9 30.08 1019 3 5 0.00 0.00
4:22 am 04:22 Mostly Cloudy with Fog 74 23.3 73 22.8 97 97 Calm 30.07 1018 1 1 0.00 0.00
4:54 am 04:54 Mostly Cloudy with Fog 74 23.3 73 22.8 97 97 Calm 30.08 1019 1 1 0.00 0.00
5:42 am 05:42 Mostly Cloudy with Mist and Fog 74 23.3 72 22.2 94 94 N 3 6 30.09 1019 1 2 0.00 0.00
5:54 am 05:54 Mostly Cloudy with Mist and Fog 74 23.3 72 22.2 94 94 Calm 30.10 1019 1 2 0.00 0.00
6:01 am 06:01 Mostly Cloudy with Mist and Fog 74 23.3 72 22.2 94 94 VRB 3 6 30.09 1019 2 3 0.00 0.00
6:22 am 06:22 Cloudy with Mist and Fog 74 23.3 72 22.2 94 94 N 7 11 30.10 1019 3 5 0.00 0.00
6:54 am 06:54 Cloudy with Mist and Fog 75 23.9 72 22.2 90 90 N 5 7 30.11 1020 5 8 0.00 0.00
6:57 am 06:57 Cloudy 75 23.9 72 22.2 90 90 N 5 7 30.11 1020 7 11 0.00 0.00
7:54 am 07:54 Mostly Cloudy 75 23.9 73 22.8 94 94 VRB 3 6 30.13 1020 10 16 0.00 0.00
8:54 am 08:54 Mostly Cloudy with Light Rain 76 24.4 73 22.8 91 91 NNE 7 11 30.14 1021 7 11 0.00 0.00
9:08 am 09:08 Cloudy 77 25 72 22.2 85 85 N 7 11 30.13 1020 10 16 0.00 0.00
9:54 am 09:54 Mostly Cloudy 80 26.7 72 22.2 76 76 NNE 9 15 30.14 1021 10 16 0.00 0.00
10:54 am 10:54 Mostly Cloudy 79 26.1 70 21.1 74 74 NE 8 13 30.14 1021 10 16 0.00 0.00
11:54 am 11:54 Cloudy 79 26.1 69 20.6 72 72 N 6 9 30.15 1021 10 16 0.00 0.00
12:54 pm 12:54 Cloudy 79 26.1 69 20.6 72 72 N 9 15 30.16 1021 10 16 0.00 0.00
1:54 pm 13:54 Cloudy 79 26.1 68 20 69 69 NNW 8 13 30.15 1021 10 16 0.00 0.00
2:54 pm 14:54 Cloudy 77 25 67 19.4 71 71 N 8 13 30.15 1021 10 16 0.00 0.00
3:54 pm 15:54 Cloudy 77 25 67 19.4 71 71 N 10 17 30.15 1021 10 16 0.00 0.00
4:54 pm 16:54 Mostly Cloudy 77 25 66 18.9 69 69 N 6 9 30.14 1021 10 16 0.00 0.00
5:54 pm 17:54 Mostly Cloudy 77 25 65 18.3 66 66 VRB 7 11 30.14 1021 10 16 0.00 0.00
6:54 pm 18:54 Mostly Cloudy 76 24.4 66 18.9 72 72 NE 8 13 30.15 1021 10 16 0.00 0.00
7:54 pm 19:54 Cloudy 76 24.4 64 17.8 67 67 NE 7 11 30.16 1021 10 16 0.00 0.00
8:54 pm 20:54 Cloudy 75 23.9 64 17.8 69 69 NE 9 15 30.19 1022 10 16 0.00 0.00
9:54 pm 21:54 Cloudy 74 23.3 63 17.2 69 69 NE 10 17 30.20 1023 10 16 0.00 0.00
10:54 pm 22:54 Cloudy 73 22.8 63 17.2 71 71 NE 12 19 30.20 1023 10 16 0.00 0.00
11:54 pm 23:54 Cloudy 72 22.2 64 17.8 76 76 NNE 6 9 30.19 1022 10 16 0.00 0.00

Powered by AerisWeather